Hourly Data Report for July 30, 2021

SECHELT AUT
BRITISH COLUMBIA
Current Station Operator: ECCC - MSC

49°27'28.788" N
123°42'54.945" W
86.20 m
1047172
71638
VOU

Download Data

Hourly Data (July 2021)
Hourly Data Report for July 30, 2021
TIME
LST
Temp Definition
°C
Dew Point Definition
°C
Rel Hum Definition
%
Precip. Amount Definition
mm

Wind Dir Definition
10's deg

Wind Spd Definition
km/h
Visibility Definition
km
Stn Press Definition
kPa
Hmdx Definition


Wind Chill Definition


Weather Definition


00:00 17.9 10.9 64 0.0 34 1   100.53     LegendNANA
01:00 17.8 10.8 63 0.0 33 4   100.56     LegendNANA
02:00 17.3 10.0 62 0.0 33 4   100.60     LegendNANA
03:00 16.5 10.5 68 0.0 33 3   100.62     LegendNANA
04:00 15.9 10.9 72 0.0 34 3   100.62     LegendNANA
05:00 15.8 10.2 70 0.0 36 1   100.62     LegendNANA
06:00 16.6 9.7 64 0.0 2 1   100.65     LegendNANA
07:00 21.9 14.2 62 0.0 30 2   100.68 25   LegendNANA
08:00 23.5 13.6 54 0.0 27 6   100.69 27   LegendNANA
09:00 24.2 16.9 64 0.0 26 5   100.68 29   LegendNANA
10:00 25.2 18.3 66 0.0 25 5   100.67 31   LegendNANA
11:00 24.8 17.2 62 0.0 27 7   100.68 30   LegendNANA
12:00 27.2 16.4 52 0.0 28 6   100.60 32   LegendNANA
13:00 30.0 16.1 43 0.0 25 4   100.56 35   LegendNANA
14:00 31.4 16.3 40 0.0 18 5   100.51 36   LegendNANA
15:00 31.7 15.4 38 0.0 28 6   100.45 36   LegendNANA
16:00 32.1 15.2 36 0.0 27 4   100.41 36   LegendNANA
17:00 33.4 13.5 30 0.0 28 4   100.37 36   LegendNANA
18:00 32.4 11.7 28 0.0 29 5   100.33 35   LegendNANA
19:00 31.1 11.7 30 0.0 31 6   100.33 33   LegendNANA
20:00 26.1 13.3 45 0.0 33 5   100.34 29   LegendNANA
21:00 25.0 12.1 44 0.0 33 8   100.34 27   LegendNANA
22:00 26.1 9.5 35 0.0 33 10   100.37 27   LegendNANA
23:00 21.3 11.3 53 0.0 12 4   100.42     LegendNANA

Notes on Data Quality.

Legend

  • E = Estimated
  • M = Missing
  • NA = Not Available*
  • [empty] = Indicates an unobserved value
Date modified: